RH
17 29 44 50 48 48 46 46 47 47 49 48 45 50 73 73 75 71 66 66 50 45 46 48 58 56 37 29 66 91 81 76 66 60 51 45 46 48 48 28 36 42 43 46 44
21 35 45 48 50 52 51 48 48 48 47 47 46 54 77 68 61 79 58 78 70 56 41 36 57 62 56 30 56 84 90 64 61 56 50 48 48 49 59 52 30 50 47 45 43
23 36 45 48 55 55 52 51 50 52 53 52 50 46 45 46 89 64 72 53 56 66 67 50 54 64 63 57 77 78 79 67 63 57 53 52 53 53 59 62 29 47 52 48 49
24 28 42 48 58 61 63 65 66 65 61 59 55 51 48 47 72 79 66 44 46 56 77 65 59 74 72 73 90 96 88 83 61 61 60 58 56 54 60 62 60 55 59 52 56
36 21 30 40 53 58 65 65 60 63 63 63 58 52 47 44 39 44 55 45 41 50 70 66 66 70 76 87 96 92 94 81 77 67 64 67 64 54 57 49 51 38 34 43 46
38 29 21 30 44 52 72 66 65 65 64 61 58 53 47 42 42 42 40 48 61 57 63 70 93 88 90 87 92 96 82 80 81 72 71 69 69 71 47 54 37 50 59 59 57
37 39 20 23 35 44 70 66 66 66 69 67 62 54 48 44 51 47 51 52 68 61 96 81 82 93 100 94 92 88 89 85 75 80 73 71 70 70 43 55 40 56 60 46 38
33 42 33 18 24 35 63 80 69 76 78 74 65 54 51 47 55 39 48 41 45 56 59 80 100 100 98 100 94 91 96 87 76 78 72 73 69 62 60 55 49 53 44 36 32
27 43 44 21 18 24 59 87 84 90 93 86 69 61 53 46 46 56 64 65 60 57 53 53 79 88 99 97 96 92 93 80 74 81 77 71 65 63 52 54 55 51 44 41 28
28 42 50 34 16 19 42 88 92 84 99 98 94 80 67 54 53 54 61 67 64 58 61 67 76 77 90 90 95 98 98 85 87 73 77 70 66 64 55 53 53 49 42 41 38
33 38 54 46 19 16 25 67 72 87 96 98 95 94 88 69 61 59 59 56 61 67 85 83 87 74 52 62 51 94 88 91 77 75 71 70 64 68 63 58 52 53 46 42 39
38 37 60 56 27 14 11 51 89 98 98 98 99 99 99 96 85 72 64 64 60 80 98 100 84 32 64 81 84 84 93 89 81 72 72 65 61 58 63 58 51 54 52 44 35
40 40 67 65 50 27 14 49 87 92 100 98 98 100 98 99 96 92 80 71 58 80 98 88 33 71 88 95 96 97 97 90 98 67 78 64 62 61 56 52 51 53 56 47 43
40 44 70 74 71 54 30 39 55 94 99 96 94 95 98 99 99 95 99 94 88 88 90 97 77 88 93 94 84 94 77 87 93 96 82 71 62 52 39 50 54 57 58 46 44
43 45 75 91 90 79 53 47 53 98 98 94 99 94 96 93 99 94 97 98 96 85 94 77 80 87 97 85 78 82 87 85 97 98 86 68 64 52 42 44 52 49 52 49 44
81 58 86 98 100 88 68 57 70 99 93 90 95 83 93 85 97 99 91 98 96 96 99 81 91 87 66 63 76 89 91 85 99 97 92 94 64 50 44 44 46 46 41 44 42
100 85 100 99 99 100 68 68 99 98 82 97 90 89 91 98 100 99 98 96 95 99 99 98 91 88 78 88 82 99 99 96 100 99 92 62 67 45 39 42 42 43 42 44 43
100 100 100 100 100 100 98 78 99 86 86 94 96 96 99 98 97 98 98 94 97 86 98 98 87 63 77 88 80 99 100 100 97 98 57 51 52 46 45 41 34 36 35 41 41
100 100 100 100 98 99 98 98 88 96 96 97 98 98 100 98 98 98 93 95 80 90 99 85 90 87 64 77 100 97 99 83 85 44 51 50 46 43 42 43 41 39 32 35 37
98 100 99 99 99 99 98 77 99 100 98 97 97 85 99 96 96 93 95 85 83 90 92 88 98 97 98 100 96 77 83 100 86 58 68 52 45 39 37 34 39 35 31 34 41
100 100 98 99 99 98 99 93 100 97 98 97 96 86 74 89 72 83 74 66 80 87 99 96 97 99 100 99 98 99 100 86 82 57 56 58 42 38 34 33 37 38 38 36 35
100 100 98 99 98 98 98 98 97 98 98 98 83 87 65 87 76 86 77 91 87 87 95 92 98 99 92 98 86 98 84 74 53 54 48 41 45 41 38 35 36 38 38 39 39
99 100 100 99 98 98 96 100 98 98 98 98 74 73 62 63 67 68 81 86 88 84 78 98 98 99 95 99 100 100 96 72 64 61 49 46 45 40 34 30 30 35 37 39 42
100 99 99 99 96 99 99 99 98 98 98 100 90 79 68 61 59 89 78 90 84 75 96 99 96 99 99 88 87 98 78 64 71 65 52 45 43 41 36 34 32 32 34 37 39
99 98 97 98 91 97 99 99 99 98 99 87 67 84 67 66 70 64 81 83 80 80 89 98 99 100 81 63 66 62 62 66 74 65 57 48 44 41 38 36 33 38 42 33 34
100 100 99 98 89 99 91 97 100 98 98 84 66 80 74 73 65 68 76 91 83 90 95 97 90 70 66 66 71 74 71 66 61 71 60 52 49 46 45 46 48 47 46 46 37
99 98 99 99 95 96 91 99 98 98 98 96 83 90 84 80 87 68 88 70 98 80 86 93 74 78 64 63 58 61 62 67 62 60 64 64 51 52 50 49 48 49 48 40 43
Wind_Speed
15 14 14 14 14 15 18 19 20 21 23 27 30 31 30 29 29 28 28 27 29 29 31 32 29 28 28 33 29 17 25 27 25 22 18 14 16 14 13 18 18 17 18 13 15
16 15 15 16 17 16 17 18 18 18 20 24 27 30 33 35 36 38 26 25 25 29 26 28 29 26 28 31 33 30 28 36 22 18 20 17 14 17 15 15 17 9 7 16 18
17 17 16 16 15 14 16 18 18 18 19 23 26 30 32 36 34 38 32 27 26 26 26 25 28 30 31 28 27 30 38 28 21 22 18 23 21 18 17 18 18 13 14 15 18
18 19 18 17 15 15 18 22 23 22 21 21 24 26 30 33 23 23 23 18 30 29 28 24 24 27 31 32 29 29 31 25 28 22 21 27 30 28 22 21 17 20 23 26 22
18 19 19 19 17 17 18 18 20 19 19 20 22 24 30 35 35 37 27 16 15 28 28 23 23 23 30 23 27 36 32 29 27 27 26 20 28 31 29 26 21 21 23 23 25
18 18 19 20 19 18 17 19 20 17 18 20 22 25 29 36 30 31 34 29 20 14 17 24 21 21 22 22 26 28 36 34 29 27 26 26 27 26 28 22 20 16 18 24 27
19 18 18 20 20 18 18 19 18 16 17 20 21 25 32 28 29 25 30 27 22 18 12 12 25 20 9 20 24 31 29 30 35 29 29 20 31 32 28 21 19 19 24 24 28
22 18 18 18 21 19 20 21 20 16 15 17 19 25 34 24 28 25 26 21 22 27 28 21 14 26 23 20 23 26 28 38 37 31 34 25 35 30 15 13 17 16 18 21 22
23 21 18 18 21 22 21 21 22 22 18 18 20 26 32 24 29 21 22 19 19 20 22 25 28 24 21 29 22 28 31 44 42 30 26 30 34 31 17 14 20 21 15 22 17
24 23 19 19 20 22 23 22 25 26 23 22 22 24 23 21 13 17 23 21 20 21 22 22 23 29 30 33 37 30 33 33 35 35 27 32 31 27 15 16 23 18 14 24 22
25 24 21 19 20 23 24 23 25 26 25 28 27 25 26 17 11 19 15 20 23 25 24 21 25 39 42 40 40 27 28 26 34 25 32 34 35 29 25 22 24 19 13 24 26
24 25 21 20 20 22 24 21 21 25 31 30 26 36 33 32 28 23 20 22 23 28 24 23 38 38 33 36 35 39 31 32 27 25 31 33 37 29 29 27 25 24 19 24 27
24 25 22 20 20 20 19 19 18 21 34 40 34 34 32 38 36 29 27 25 25 26 29 34 41 29 30 29 30 35 41 37 28 30 28 27 31 30 27 25 28 26 23 27 30
23 23 23 20 20 17 16 17 19 13 19 27 26 28 32 40 41 34 26 28 29 29 23 29 33 33 30 36 34 38 42 42 29 30 24 26 6 28 28 34 33 31 30 31 33
21 23 23 18 20 16 14 14 14 6 6 9 11 16 15 31 38 32 38 36 29 27 26 36 29 34 38 39 40 42 34 43 35 25 25 17 13 25 15 26 33 30 29 36 38
18 21 21 18 15 15 13 13 9 6 8 8 11 10 15 19 24 31 22 30 28 26 30 33 20 24 35 37 40 36 36 45 38 28 12 22 23 9 19 25 25 29 27 34 36
18 18 15 16 16 15 15 11 7 10 8 9 15 16 18 21 22 32 23 33 27 21 27 31 34 38 31 28 39 35 35 13 11 10 4 29 17 4 10 23 21 22 27 33 35
19 15 18 19 20 18 13 10 12 12 19 16 11 14 20 20 23 29 13 28 33 25 10 20 17 33 38 39 41 47 49 6 5 5 7 30 10 7 23 15 20 19 19 28 28
20 18 21 22 20 23 12 17 12 11 21 23 18 16 19 21 9 21 24 27 30 33 20 10 20 23 34 39 36 36 34 48 10 17 11 9 9 14 18 21 21 22 20 20 19
21 21 21 21 24 21 18 28 22 20 23 11 11 9 10 14 17 19 15 10 24 29 29 22 10 13 23 20 37 37 39 20 6 7 7 11 23 10 23 20 20 20 20 17 21
21 23 25 17 21 23 32 33 30 34 29 15 16 12 11 13 18 20 13 17 13 23 34 31 21 9 18 23 36 28 27 14 5 7 5 5 4 18 19 18 15 18 17 17 23
23 24 21 20 23 28 33 31 30 29 13 19 15 19 14 15 17 16 23 11 12 25 27 29 10 7 17 23 29 40 29 11 4 3 5 7 5 18 17 12 9 12 13 15 22
24 22 17 20 23 28 27 30 34 29 22 13 19 13 12 10 14 21 14 12 12 18 9 10 10 4 1 25 33 27 29 19 9 1 3 3 8 14 13 11 9 8 11 13 17
26 20 22 23 24 27 23 29 32 26 21 17 16 10 12 13 17 7 18 11 16 14 15 15 13 13 10 8 34 25 27 21 10 2 2 2 18 16 13 10 8 7 6 4 7
30 25 22 19 17 25 26 25 18 10 10 14 19 19 16 15 14 20 11 14 12 15 19 8 9 7 6 15 22 28 31 27 24 17 4 8 6 10 11 13 10 6 7 8 5
30 28 17 22 20 14 17 27 29 30 16 20 22 16 16 18 16 19 10 17 15 15 15 12 11 12 12 11 11 15 23 28 25 22 18 15 10 11 8 14 15 11 10 12 12
30 28 29 17 13 16 23 24 23 23 18 28 24 14 19 18 7 14 12 17 6 15 20 16 5 10 6 7 8 3 17 19 21 24 25 26 20 10 12 12 15 16 15 13 14
Wind_Direction
286 277 275 283 282 278 273 267 265 265 263 263 261 258 261 262 261 263 257 257 254 258 249 246 244 240 239 232 227 223 222 234 233 240 247 248 266 266 264 252 234 229 226 276 259
291 278 278 289 290 283 278 270 265 261 264 266 266 264 260 265 264 262 261 257 259 257 255 247 243 240 236 234 226 215 231 231 232 237 253 255 262 263 250 267 233 248 266 289 273
291 281 278 289 292 286 282 274 270 267 262 261 262 263 262 266 260 270 256 260 258 254 249 242 238 231 227 227 225 225 235 234 238 237 244 253 240 245 257 268 239 236 242 217 242
291 283 278 281 286 291 287 278 273 270 267 263 262 261 262 257 259 267 268 257 242 247 244 241 235 230 231 223 215 231 236 244 225 225 251 252 244 245 247 253 244 239 245 234 249
287 282 277 278 284 295 293 286 275 270 267 265 265 263 262 257 252 254 256 258 253 241 242 241 236 229 231 229 220 225 229 235 247 238 235 260 256 251 251 254 248 250 255 261 272
282 281 277 276 282 297 298 296 289 286 276 269 266 266 263 261 265 251 251 248 251 247 237 228 227 230 231 237 219 232 230 230 231 241 252 242 250 259 258 267 253 248 262 256 259
276 279 275 273 275 286 291 303 300 291 281 275 270 266 262 267 261 249 253 248 222 220 200 234 229 207 227 240 229 227 229 236 239 235 238 245 252 252 260 264 253 256 268 259 261
274 274 275 270 270 272 285 291 303 307 293 278 267 262 265 270 261 256 253 251 240 243 241 224 229 224 211 226 226 224 234 229 225 229 230 231 249 251 266 273 245 253 265 265 259
272 273 274 271 265 267 274 275 292 304 307 280 265 262 269 274 261 255 252 247 235 237 238 231 231 228 229 229 235 220 228 229 230 221 226 230 251 256 234 217 239 240 261 277 270
269 271 273 272 267 265 267 273 284 292 277 283 270 267 267 272 258 243 241 243 241 233 235 232 225 228 226 217 221 220 230 230 234 220 222 230 240 251 219 228 243 243 238 254 267
266 267 269 271 268 266 266 273 282 286 280 282 273 274 270 262 260 249 243 233 236 234 228 226 219 222 222 221 225 224 237 242 231 239 222 230 237 236 244 236 224 248 238 245 256
262 265 264 270 269 268 268 277 289 287 287 275 274 266 256 261 258 249 239 232 232 228 220 212 226 234 234 231 231 227 233 237 246 222 229 231 233 247 241 235 235 235 245 241 251
258 262 261 267 272 275 275 281 278 293 279 274 279 266 264 254 253 248 244 248 243 234 221 217 242 234 230 232 236 235 235 229 237 225 227 227 236 236 239 230 233 235 239 240 249
252 256 259 265 272 277 280 275 279 298 276 275 273 266 248 243 249 245 236 238 230 231 229 236 242 234 235 230 223 234 225 227 235 240 202 203 253 239 243 227 222 225 226 229 243
244 250 254 262 273 280 279 277 266 278 279 270 245 248 246 235 242 256 248 233 217 218 214 232 238 231 231 230 217 234 231 226 243 247 212 214 219 250 247 220 220 228 226 228 241
240 245 252 255 279 290 274 265 267 239 251 249 256 258 239 251 241 241 233 217 222 221 227 236 235 239 238 241 221 226 233 224 236 214 220 206 203 244 223 218 220 226 206 219 233
233 242 251 272 275 290 282 254 219 224 247 254 255 258 260 249 243 230 196 206 206 213 233 245 240 236 240 238 225 222 216 227 223 196 222 196 193 183 190 204 212 220 223 223 231
226 236 229 252 260 277 277 233 227 250 236 251 255 260 241 239 239 223 206 212 215 223 232 231 249 238 237 220 219 210 214 212 166 193 152 178 208 171 227 227 202 214 234 233 231
216 226 231 240 256 259 255 219 235 250 259 264 268 255 240 240 234 209 217 214 222 218 225 242 251 249 234 226 205 208 215 225 256 163 131 179 158 195 207 212 228 238 227 222 212
209 221 243 239 251 245 258 248 243 254 270 254 230 244 221 224 207 197 206 254 234 229 237 239 284 237 203 204 212 209 224 209 214 165 164 177 184 182 192 193 208 214 217 216 204
215 224 237 237 243 233 247 255 254 265 269 239 247 240 229 207 203 202 211 251 251 215 228 236 258 277 193 203 193 202 210 203 133 246 145 130 145 203 176 198 199 212 217 217 207
214 220 238 234 224 232 249 257 267 266 271 273 220 224 232 217 201 216 225 253 206 210 221 244 267 277 243 208 208 198 191 186 229 38 45 104 120 156 174 176 181 199 217 220 217
210 224 233 241 224 234 260 260 262 265 270 256 227 225 224 221 198 224 238 251 222 232 236 209 222 177 206 172 184 190 185 191 142 316 200 50 144 169 164 165 173 179 203 219 224
209 210 222 224 240 249 260 266 268 283 274 240 228 217 216 220 210 208 225 230 232 264 232 189 237 240 257 169 177 188 186 198 191 219 88 109 152 178 187 182 169 147 146 148 221
210 224 229 220 242 237 250 256 267 281 230 219 210 207 209 215 218 228 205 201 245 245 233 255 272 286 54 151 178 174 187 200 210 197 211 205 168 172 205 213 198 229 240 238 250
221 218 215 241 247 257 259 262 266 273 237 222 212 217 201 213 204 216 209 188 207 222 229 250 303 15 90 102 133 171 197 210 213 208 211 190 203 219 233 246 249 250 255 258 248
219 222 230 231 247 260 264 269 281 293 280 214 217 199 204 230 204 229 240 202 242 220 207 216 244 356 56 102 153 202 214 226 226 224 220 220 202 200 212 229 252 266 263 259 250